{"data":{"norad_id":55393,"intl_designator":"2023-014C","name":"STARLINK-4786","alt_names":[],"object_type":"PAYLOAD","status":"ACTIVE","operator":null,"country":"US","launch_date":"2023-01-31","launch_site_code":"AFWTR","launch_vehicle":null,"mission":null,"orbit_class":"UNKNOWN","rcs_meters":null,"size_class":null,"mass_kg":null,"dimensions":null,"purposes":["comms"],"wikipedia_slug":null,"has_3d_model":false,"image_url":null,"decayed_at":null,"tle_current":{"epoch":"2026-05-24T23:10:42.911616Z","epoch_age_seconds":88396,"freshness":"FRESH","line1":"1 55393U 23014C   26144.96577444 -.00000165  00000+0 -60198-5 0  9990","line2":"2 55393  69.9994 232.0324 0003557 268.9280  91.1472 14.98330609183485","mean_motion":14.98330609,"eccentricity":0.0003557,"inclination_deg":69.9994,"raan_deg":232.0324,"arg_perigee_deg":268.928,"mean_anomaly_deg":91.1472,"bstar":-6.0198e-6,"rev_number":18348,"period_min":96.106960062777,"perigee_km":569.58182472136,"apogee_km":574.52619060422,"semimajor_km":6950.1910076628,"source":"CELESTRAK","updated_at":"2026-05-25T13:38:17.772319Z"}}}